Location: Beeston
(52.7000°N, 0.8167°E)
Time: 20:34:02
(UTC+00:00)

Cosmos 2322 - Pass Details

Date: 15 May 2026
Orbit: 840 x 853 km, 71.0° (Epoch: 6 June)

Event Time Altitude Azimuth Distance (km) Brightness Sun altitude
Rises 21:47:54 0° 329° (NNW) 3,430 8.9 -13.3°
Reaches altitude 10° 21:50:27 10° 334° (NNW) 2,489 7.6 -13.5°
Maximum altitude 21:56:02 53° 51° (NE) 1,043 4.2 -13.9°
Enters shadow 22:00:22 17° 124° (SE) 2,040 5.2 -14.2°
